20041120,000025,1496390,32.706630,-117.236232,3.9,16.534,32.955,42.105,470.37,0.0,5.024, NaN, NaN, NaN,24.053,   NaN,17.08,1011.57,87.19,16.93,97.0,98.8,3.9,4.1,225.9,227.6,3.9,4.1,NaN, NaN,31.0,324.9,270.7,1100908826,1100908825,1,0.1,000026,000025,129.0,32.706648,-117.236123,NaN,NaN,NaN,16.538, NaN,NaN,NaN, NaN, NaN
20041120,000055,1496421,32.706625,-117.236233,4.0,16.535,32.961,42.113,240.00,0.0,4.946, NaN, NaN, NaN,24.058,   NaN,17.05,1011.57,86.73,16.93,99.3,99.4,4.5,4.8,228.1,228.3,4.5,4.8,NaN, NaN,31.1,324.9,270.7,1100908856,1100908855,1,0.1,000055,000055,128.7,32.706645,-117.236123,NaN,NaN,NaN,16.539, NaN,NaN,NaN, NaN, NaN
20041120,000126,1496451,32.706626,-117.236232,4.0,16.545,32.953,42.114,239.25,0.0,4.867, NaN, NaN, NaN,24.049,   NaN,17.06,1011.60,86.76,16.90,101.3,102.5,4.0,4.3,230.1,231.3,4.0,4.3,NaN, NaN,30.7,324.9,270.7,1100908887,1100908885,1,0.1,000086,000085,129.1,32.706650,-117.236112,NaN,NaN,NaN,16.549, NaN,NaN,NaN, NaN, NaN
20041120,000156,1496482,32.706626,-117.236235,4.0,16.523,32.958,42.098,243.88,0.0,5.192, NaN, NaN, NaN,24.058,   NaN,17.08,1011.62,86.73,16.95,95.0,96.4,3.3,3.6,223.8,225.2,3.3,3.6,NaN, NaN,30.9,324.9,270.7,1100908917,1100908915,1,0.1,000116,000115,128.7,32.706653,-117.236118,NaN,NaN,NaN,16.527, NaN,NaN,NaN, NaN, NaN
20041120,000225,1496510,32.706626,-117.236233,4.0,16.508,32.947,42.072,250.99,0.0,5.090, NaN, NaN, NaN,24.053,   NaN,17.08,1011.62,86.71,16.95,92.5,93.4,3.2,3.5,221.3,222.2,3.2,3.5,NaN, NaN,31.2,324.9,270.7,1100908946,1100908945,1,0.1,000146,000145,128.8,32.706646,-117.236125,NaN,NaN,NaN,16.512, NaN,NaN,NaN, NaN, NaN
20041120,000255,1496540,32.706626,-117.236232,3.9,16.544,32.949,42.108,256.30,0.0,5.098, NaN, NaN, NaN,24.046,   NaN,17.11,1011.68,86.58,16.95,90.7,91.9,3.2,3.5,219.5,220.7,3.2,3.5,NaN, NaN,31.4,324.9,270.7,1100908976,1100908975,1,0.0,000175,000175,128.9,32.706653,-117.236110,NaN,NaN,NaN,16.548, NaN,NaN,NaN, NaN, NaN
20041120,000326,1496571,32.706625,-117.236235,3.9,16.562,32.956,42.133,303.15,0.0,4.991, NaN, NaN, NaN,24.048,   NaN,17.08,1011.69,86.49,16.95,91.3,90.9,3.2,3.6,220.1,219.7,3.2,3.6,NaN, NaN,31.4,324.9,270.7,1100909007,1100909005,1,0.1,000206,000205,128.7,32.706646,-117.236118,NaN,NaN,NaN,16.566, NaN,NaN,NaN, NaN, NaN
20041120,000356,1496601,32.706626,-117.236233,3.9,16.580,32.944,42.136,309.32,0.0,5.225, NaN, NaN, NaN,24.034,   NaN,17.09,1011.63,86.42,16.93,92.9,91.2,3.3,3.8,221.7,220.0,3.3,3.8,NaN, NaN,32.0,324.9,270.7,1100909037,1100909035,1,0.0,000236,000235,128.8,32.706633,-117.236118,NaN,NaN,NaN,16.584, NaN,NaN,NaN, NaN, NaN
20041120,000425,1496630,32.706625,-117.236235,3.9,16.621,32.948,42.181,245.38,0.0,5.117, NaN, NaN, NaN,24.028,   NaN,17.08,1011.61,86.30,16.93,90.9,90.5,3.7,4.3,219.6,219.3,3.7,4.3,NaN, NaN,31.5,324.9,270.7,1100909066,1100909065,1,0.0,000266,000265,128.6,32.706630,-117.236120,NaN,NaN,NaN,16.625, NaN,NaN,NaN, NaN, NaN
20041120,000455,1496660,32.706623,-117.236235,3.9,16.644,32.938,42.189,243.30,0.0,5.307, NaN, NaN, NaN,24.015,   NaN,17.08,1011.69,86.34,16.95,90.7,91.8,3.8,4.2,219.4,220.6,3.8,4.2,NaN, NaN,32.0,324.9,270.7,1100909096,1100909095,1,0.0,000295,000295,129.0,32.706626,-117.236107,NaN,NaN,NaN,16.648, NaN,NaN,NaN, NaN, NaN
20041120,000526,1496691,32.706625,-117.236238,4.0,16.666,32.936,42.208,227.94,0.0,5.189, NaN, NaN, NaN,24.009,   NaN,17.09,1011.68,86.34,16.95,92.9,93.5,3.0,3.3,221.7,222.3,3.0,3.3,NaN, NaN,32.0,324.9,270.7,1100909127,1100909125,1,0.0,000326,000325,128.7,32.706623,-117.236127,NaN,NaN,NaN,16.670, NaN,NaN,NaN, NaN, NaN
20041120,000556,1496721,32.706626,-117.236235,4.0,16.671,32.911,42.184,219.62,0.0,5.182, NaN, NaN, NaN,23.988,   NaN,17.10,1011.68,86.20,16.95,90.7,92.1,2.9,3.1,219.5,220.9,2.9,3.1,NaN, NaN,32.3,324.9,270.7,1100909157,1100909155,1,0.1,000356,000355,128.9,32.706626,-117.236125,NaN,NaN,NaN,16.675, NaN,NaN,NaN, NaN, NaN
20041120,000625,1496751,32.706625,-117.236237,3.9,16.678,32.948,42.233,211.17,0.0,5.151, NaN, NaN, NaN,24.015,   NaN,17.06,1011.69,86.07,16.95,82.6,83.0,3.3,3.5,211.4,211.7,3.3,3.5,NaN, NaN,32.3,324.9,270.7,1100909186,1100909185,1,0.1,000386,000385,128.7,32.706625,-117.236130,NaN,NaN,NaN,16.682, NaN,NaN,NaN, NaN, NaN
20041120,000655,1496780,32.706626,-117.236233,4.0,16.692,32.932,42.228,204.47,0.0,5.251, NaN, NaN, NaN,23.999,   NaN,17.09,1011.69,86.06,16.93,83.3,82.6,3.1,3.4,212.1,211.4,3.1,3.4,NaN, NaN,32.7,324.9,270.7,1100909216,1100909215,1,0.1,000415,000415,128.9,32.706630,-117.236127,NaN,NaN,NaN,16.696, NaN,NaN,NaN, NaN, NaN
20041120,000726,1496811,32.706626,-117.236235,4.0,16.699,32.939,42.243,200.03,0.0,5.167, NaN, NaN, NaN,24.003,   NaN,17.17,1011.73,86.26,16.95,98.0,99.2,2.4,2.6,226.7,228.0,2.4,2.6,NaN, NaN,32.3,324.9,270.7,1100909247,1100909245,1,0.1,000446,000445,128.7,32.706630,-117.236112,NaN,NaN,NaN,16.703, NaN,NaN,NaN, NaN, NaN
20041120,000756,1496842,32.706625,-117.236235,4.0,16.700,32.939,42.244,193.78,0.0,5.175, NaN, NaN, NaN,24.003,   NaN,17.19,1011.73,86.21,16.98,101.0,102.3,1.9,2.0,229.8,231.1,1.9,2.0,NaN, NaN,32.2,324.9,270.7,1100909277,1100909275,1,0.1,000476,000475,128.9,32.706625,-117.236105,NaN,NaN,NaN,16.704, NaN,NaN,NaN, NaN, NaN
20041120,000825,1496870,32.706626,-117.236235,3.9,16.705,32.927,42.235,197.05,0.0,5.389, NaN, NaN, NaN,23.993,   NaN,17.15,1011.71,86.09,17.01,86.9,89.4,1.9,2.1,215.7,218.2,1.9,2.1,NaN, NaN,31.7,324.9,270.7,1100909307,1100909305,1,0.1,000506,000505,128.8,32.706611,-117.236090,NaN,NaN,NaN,16.709, NaN,NaN,NaN, NaN, NaN
20041120,000855,1496900,32.706626,-117.236237,4.0,16.710,32.932,42.245,196.07,0.0,5.215, NaN, NaN, NaN,23.995,   NaN,17.13,1011.72,86.08,17.01,90.7,94.5,2.1,2.3,219.6,223.4,2.1,2.3,NaN, NaN,31.8,324.9,270.7,1100909336,1100909335,1,0.1,000535,000535,128.9,32.706606,-117.236102,NaN,NaN,NaN,16.714, NaN,NaN,NaN, NaN, NaN
20041120,000926,1496931,32.706626,-117.236237,3.9,16.715,32.935,42.253,179.10,0.0,5.387, NaN, NaN, NaN,23.996,   NaN,17.14,1011.74,86.10,16.95,98.7,101.9,1.8,1.9,227.6,230.7,1.8,1.9,NaN, NaN,31.7,324.9,270.7,1100909367,1100909365,1,0.1,000566,000565,129.0,32.706616,-117.236107,NaN,NaN,NaN,16.719, NaN,NaN,NaN, NaN, NaN
20041120,000956,1496961,32.706626,-117.236237,4.0,16.721,32.929,42.252,175.13,0.0,5.316, NaN, NaN, NaN,23.990,   NaN,17.17,1011.73,86.12,16.95,94.3,94.5,1.4,1.6,223.1,223.4,1.4,1.6,NaN, NaN,31.1,324.9,270.7,1100909397,1100909395,1,0.1,000596,000595,128.9,32.706620,-117.236117,NaN,NaN,NaN,16.725, NaN,NaN,NaN, NaN, NaN
20041120,001025,1496990,32.706625,-117.236240,4.0,16.720,32.930,42.253,171.18,0.0,5.380, NaN, NaN, NaN,23.992,   NaN,17.11,1011.73,86.11,16.95,83.4,82.7,1.4,1.6,212.3,211.6,1.4,1.6,NaN, NaN,30.6,324.9,270.7,1100909426,1100909425,1,0.1,000626,000625,128.8,32.706628,-117.236120,NaN,NaN,NaN,16.724, NaN,NaN,NaN, NaN, NaN
20041120,001055,1497020,32.706628,-117.236238,4.0,16.726,32.936,42.266,168.82,0.0,5.303, NaN, NaN, NaN,23.995,   NaN,17.15,1011.75,86.09,16.93,86.5,86.0,1.7,2.0,215.4,214.9,1.7,2.0,NaN, NaN,31.0,324.9,270.7,1100909456,1100909455,1,0.1,000655,000655,129.0,32.706638,-117.236123,NaN,NaN,NaN,16.730, NaN,NaN,NaN, NaN, NaN
20041120,001126,1497051,32.706630,-117.236237,3.9,16.722,32.935,42.260,167.49,0.0,5.343, NaN, NaN, NaN,23.995,   NaN,17.12,1011.75,86.11,16.93,94.7,97.6,1.7,1.8,223.6,226.5,1.7,1.8,NaN, NaN,30.8,324.9,270.7,1100909487,1100909485,1,0.1,000686,000685,128.8,32.706635,-117.236125,NaN,NaN,NaN,16.726, NaN,NaN,NaN, NaN, NaN
20041120,001156,1497081,32.706628,-117.236238,4.0,16.719,32.935,42.258,189.04,0.0,5.274, NaN, NaN, NaN,23.996,   NaN,17.13,1011.75,85.95,16.87,105.7,109.9,2.2,2.3,234.6,238.8,2.2,2.3,NaN, NaN,30.1,324.9,270.7,1100909517,1100909515,1,0.1,000716,000715,128.9,32.706633,-117.236120,NaN,NaN,NaN,16.723, NaN,NaN,NaN, NaN, NaN
20041120,001225,1497111,32.706631,-117.236237,4.0,16.717,32.906,42.223,211.82,0.0,5.255, NaN, NaN, NaN,23.974,   NaN,17.09,1011.75,85.41,16.87,107.4,109.0,2.4,2.6,236.4,237.9,2.4,2.6,NaN, NaN,30.2,324.9,270.7,1100909547,1100909545,1,0.1,000746,000745,128.9,32.706648,-117.236118,NaN,NaN,NaN,16.721, NaN,NaN,NaN, NaN, NaN
20041120,001255,1497140,32.706626,-117.236240,4.0,16.721,32.924,42.247,304.00,0.0,5.367, NaN, NaN, NaN,23.987,   NaN,17.11,1011.77,85.23,16.87,102.2,101.0,2.7,2.8,231.1,229.9,2.7,2.8,NaN, NaN,30.3,324.9,270.7,1100909576,1100909575,1,0.1,000775,000775,128.9,32.706648,-117.236118,NaN,NaN,NaN,16.725, NaN,NaN,NaN, NaN, NaN
20041120,001326,1497172,32.706625,-117.236238,3.9,16.710,32.947,42.262,325.13,0.0,5.166, NaN, NaN, NaN,24.006,   NaN,17.13,1011.75,85.22,16.90,88.8,87.1,2.5,2.7,217.6,215.9,2.5,2.7,NaN, NaN,30.1,324.9,270.7,1100909607,1100909605,1,0.1,000806,000805,128.8,32.706641,-117.236133,NaN,NaN,NaN,16.714, NaN,NaN,NaN, NaN, NaN
20041120,001356,1497201,32.706625,-117.236240,3.9,16.644,32.951,42.205,335.09,0.0,5.094, NaN, NaN, NaN,24.025,   NaN,17.16,1011.78,85.32,16.90,91.6,90.6,2.2,2.4,220.4,219.5,2.2,2.4,NaN, NaN,30.1,324.9,270.7,1100909637,1100909635,1,0.1,000836,000835,128.9,32.706640,-117.236148,NaN,NaN,NaN,16.648, NaN,NaN,NaN, NaN, NaN
20041120,001425,1497230,32.706625,-117.236245,4.0,16.597,32.953,42.163,331.77,0.0,5.168, NaN, NaN, NaN,24.037,   NaN,17.19,1011.79,85.05,16.90,101.1,102.8,2.5,2.7,230.0,231.6,2.5,2.7,NaN, NaN,30.0,324.9,270.7,1100909667,1100909665,1,0.0,000866,000865,128.8,32.706643,-117.236153,NaN,NaN,NaN,16.601, NaN,NaN,NaN, NaN, NaN
20041120,001455,1497261,32.706625,-117.236240,3.9,16.615,32.926,42.149,256.27,0.0,5.182, NaN, NaN, NaN,24.012,   NaN,17.16,1011.75,84.94,16.90,100.7,100.3,2.7,3.0,229.6,229.1,2.7,3.0,NaN, NaN,29.9,324.9,270.7,1100909696,1100909695,1,0.0,000895,000895,128.9,32.706630,-117.236167,NaN,NaN,NaN,16.619, NaN,NaN,NaN, NaN, NaN
20041120,001526,1497291,32.706625,-117.236243,3.9,16.648,32.941,42.197,240.02,0.0,5.093, NaN, NaN, NaN,24.017,   NaN,17.16,1011.77,84.79,16.90,96.8,96.6,2.7,2.9,225.7,225.4,2.7,2.9,NaN, NaN,29.5,324.9,270.7,1100909727,1100909725,1,0.0,000926,000925,128.8,32.706623,-117.236157,NaN,NaN,NaN,16.652, NaN,NaN,NaN, NaN, NaN
20041120,001556,1497322,32.706628,-117.236242,4.0,16.649,32.946,42.204,284.70,0.0,5.349, NaN, NaN, NaN,24.020,   NaN,17.16,1011.80,84.78,16.90,99.1,98.9,3.0,3.1,228.0,227.8,3.0,3.1,NaN, NaN,30.1,324.9,270.7,1100909757,1100909755,1,0.1,000956,000955,128.9,32.706636,-117.236170,NaN,NaN,NaN,16.653, NaN,NaN,NaN, NaN, NaN
20041120,001625,1497350,32.706623,-117.236242,3.9,16.657,32.942,42.207,297.76,0.0,5.281, NaN, NaN, NaN,24.015,   NaN,17.20,1011.82,84.80,16.93,100.2,99.9,2.6,2.7,229.1,228.7,2.6,2.7,NaN, NaN,30.0,324.9,270.7,1100909787,1100909785,1,0.1,000986,000985,128.7,32.706630,-117.236165,NaN,NaN,NaN,16.661, NaN,NaN,NaN, NaN, NaN
20041120,001655,1497380,32.706623,-117.236240,4.0,16.668,32.928,42.201,258.13,0.0,5.446, NaN, NaN, NaN,24.002,   NaN,17.18,1011.79,84.79,16.95,102.4,102.8,3.1,3.3,231.2,231.7,3.1,3.3,NaN, NaN,30.1,324.9,270.7,1100909816,1100909815,1,0.1,001015,001015,128.9,32.706641,-117.236142,NaN,NaN,NaN,16.672, NaN,NaN,NaN, NaN, NaN
20041120,001726,1497411,32.706626,-117.236238,3.9,16.680,32.929,42.213,251.96,0.0,5.293, NaN, NaN, NaN,24.000,   NaN,17.17,1011.83,84.77,17.01,96.6,97.6,3.3,3.4,225.5,226.4,3.3,3.4,NaN, NaN,30.3,324.9,270.7,1100909847,1100909845,1,0.1,001046,001045,128.7,32.706631,-117.236130,NaN,NaN,NaN,16.684, NaN,NaN,NaN, NaN, NaN
20041120,001756,1497441,32.706628,-117.236238,3.9,16.682,32.941,42.229,239.82,0.0,5.308, NaN, NaN, NaN,24.008,   NaN,17.18,1011.83,84.79,16.95,90.9,91.8,2.9,3.1,219.6,220.6,2.9,3.1,NaN, NaN,30.8,324.9,270.7,1100909877,1100909875,1,0.1,001076,001075,128.8,32.706621,-117.236125,NaN,NaN,NaN,16.686, NaN,NaN,NaN, NaN, NaN
20041120,001825,1497470,32.706625,-117.236240,3.9,16.677,32.938,42.221,190.26,0.0,5.355, NaN, NaN, NaN,24.008,   NaN,17.18,1011.84,84.74,17.01,95.8,96.1,2.8,2.9,224.5,224.8,2.8,2.9,NaN, NaN,30.2,324.9,270.7,1100909906,1100909905,1,0.0,001106,001105,128.7,32.706618,-117.236127,NaN,NaN,NaN,16.681, NaN,NaN,NaN, NaN, NaN
20041120,001855,1497500,32.706628,-117.236240,3.9,16.667,32.935,42.208,158.08,0.0,5.281, NaN, NaN, NaN,24.007,   NaN,17.23,1011.85,84.62,17.04,98.9,100.2,3.1,3.2,227.6,228.9,3.1,3.2,NaN, NaN,30.5,324.9,270.7,1100909936,1100909935,1,0.1,001135,001135,128.9,32.706623,-117.236127,NaN,NaN,NaN,16.671, NaN,NaN,NaN, NaN, NaN
20041120,001926,1497532,32.706625,-117.236240,3.9,16.664,32.930,42.200,150.12,0.0,5.313, NaN, NaN, NaN,24.004,   NaN,17.16,1011.83,84.47,16.95,107.3,110.5,3.5,3.6,236.1,239.4,3.5,3.6,NaN, NaN,30.3,324.9,270.7,1100909967,1100909965,1,0.1,001166,001165,128.7,32.706630,-117.236133,NaN,NaN,NaN,16.668, NaN,NaN,NaN, NaN, NaN
20041120,001956,1497561,32.706623,-117.236240,3.9,16.660,32.944,42.212,145.04,0.0,5.202, NaN, NaN, NaN,24.016,   NaN,17.18,1011.87,84.52,16.93,109.3,110.7,3.3,3.4,238.0,239.5,3.3,3.4,NaN, NaN,30.3,324.9,270.7,1100909997,1100909995,1,0.1,001196,001195,128.7,32.706628,-117.236147,NaN,NaN,NaN,16.664, NaN,NaN,NaN, NaN, NaN
20041120,002025,1497591,32.706626,-117.236237,3.9,16.657,32.950,42.216,140.70,0.0,5.178, NaN, NaN, NaN,24.021,   NaN,17.19,1011.86,84.53,16.95,101.7,102.6,2.8,2.9,230.5,231.4,2.8,2.9,NaN, NaN,30.4,324.9,270.7,1100910026,1100910025,1,0.0,001226,001225,128.9,32.706623,-117.236148,NaN,NaN,NaN,16.661, NaN,NaN,NaN, NaN, NaN
20041120,002055,1497621,32.706628,-117.236242,3.9,16.650,32.897,42.148,137.66,0.0,5.113, NaN, NaN, NaN,23.982,   NaN,17.19,1011.85,84.47,16.95,99.9,101.3,2.9,3.1,228.7,230.2,2.9,3.1,NaN, NaN,30.6,324.9,270.7,1100910056,1100910055,1,0.1,001255,001255,128.8,32.706625,-117.236148,NaN,NaN,NaN,16.654, NaN,NaN,NaN, NaN, NaN
20041120,002126,1497651,32.706625,-117.236247,3.9,16.620,32.955,42.187,136.20,0.0,5.131, NaN, NaN, NaN,24.034,   NaN,17.16,1011.88,84.37,16.95,101.0,102.4,3.2,3.3,229.9,231.3,3.2,3.3,NaN, NaN,30.9,324.9,270.7,1100910087,1100910085,1,0.1,001286,001285,128.9,32.706638,-117.236145,NaN,NaN,NaN,16.624, NaN,NaN,NaN, NaN, NaN
20041120,002156,1497682,32.706626,-117.236242,3.9,16.619,32.950,42.180,136.33,0.0,5.096, NaN, NaN, NaN,24.030,   NaN,17.21,1011.91,84.47,16.95,104.5,103.4,2.3,2.4,233.3,232.2,2.3,2.4,NaN, NaN,31.4,324.9,270.7,1100910117,1100910115,1,0.1,001316,001315,128.7,32.706641,-117.236143,NaN,NaN,NaN,16.623, NaN,NaN,NaN, NaN, NaN
20041120,002225,1497710,32.706623,-117.236238,3.9,16.618,32.953,42.183,136.69,0.0,5.026, NaN, NaN, NaN,24.033,   NaN,17.17,1011.88,84.42,16.95,107.0,105.9,2.0,2.2,235.8,234.7,2.0,2.2,NaN, NaN,31.3,324.9,270.7,1100910147,1100910145,1,0.0,001346,001345,128.5,32.706643,-117.236152,NaN,NaN,NaN,16.622, NaN,NaN,NaN, NaN, NaN
20041120,002255,1497740,32.706623,-117.236242,3.9,16.621,32.950,42.181,137.19,0.0,5.095, NaN, NaN, NaN,24.029,   NaN,17.17,1011.89,84.45,16.95,104.4,102.8,1.9,2.1,233.1,231.5,1.9,2.1,NaN, NaN,31.2,324.9,270.7,1100910176,1100910175,1,0.0,001375,001375,128.9,32.706640,-117.236157,NaN,NaN,NaN,16.625, NaN,NaN,NaN, NaN, NaN
20041120,002326,1497771,32.706621,-117.236240,3.9,16.626,32.939,42.174,137.17,0.0,5.102, NaN, NaN, NaN,24.020,   NaN,17.18,1011.90,84.43,16.95,88.7,84.8,1.7,1.8,217.4,213.5,1.7,1.8,NaN, NaN,31.3,324.9,270.7,1100910207,1100910205,1,0.0,001406,001405,128.7,32.706628,-117.236143,NaN,NaN,NaN,16.630, NaN,NaN,NaN, NaN, NaN
20041120,002356,1497801,32.706625,-117.236243,3.9,16.634,32.944,42.186,136.50,0.0,5.330, NaN, NaN, NaN,24.022,   NaN,17.18,1011.89,84.42,16.95,78.9,74.4,1.4,1.6,207.7,203.3,1.4,1.6,NaN, NaN,31.2,324.9,270.7,1100910237,1100910235,1,0.0,001436,001435,128.8,32.706626,-117.236145,NaN,NaN,NaN,16.638, NaN,NaN,NaN, NaN, NaN
20041120,002425,1497830,32.706623,-117.236242,3.9,16.645,32.936,42.188,134.06,0.0,5.187, NaN, NaN, NaN,24.013,   NaN,17.19,1011.88,84.41,16.95,92.3,87.3,1.5,1.7,221.1,216.1,1.5,1.7,NaN, NaN,30.6,324.9,270.7,1100910266,1100910265,1,0.0,001466,001465,128.8,32.706623,-117.236137,NaN,NaN,NaN,16.649, NaN,NaN,NaN, NaN, NaN
20041120,002455,1497860,32.706626,-117.236243,3.9,16.658,32.934,42.199,129.63,0.0,5.431, NaN, NaN, NaN,24.009,   NaN,17.15,1011.87,84.41,16.98,99.9,96.1,1.8,1.9,228.7,224.9,1.8,1.9,NaN, NaN,30.8,324.9,270.7,1100910296,1100910295,1,0.1,001495,001495,128.9,32.706635,-117.236130,NaN,NaN,NaN,16.662, NaN,NaN,NaN, NaN, NaN
20041120,002526,1497891,32.706625,-117.236242,3.9,16.685,32.926,42.215,123.39,0.0,5.363, NaN, NaN, NaN,23.996,   NaN,17.12,1011.87,84.13,16.93,95.0,93.5,2.4,2.5,223.8,222.3,2.4,2.5,NaN, NaN,30.5,324.9,270.7,1100910327,1100910325,1,0.1,001526,001525,128.8,32.706638,-117.236142,NaN,NaN,NaN,16.689, NaN,NaN,NaN, NaN, NaN
20041120,002556,1497921,32.706625,-117.236242,3.9,16.692,32.926,42.221,116.96,0.0,5.288, NaN, NaN, NaN,23.995,   NaN,17.12,1011.87,84.19,16.98,99.5,99.6,3.0,3.1,228.3,228.5,3.0,3.1,NaN, NaN,30.4,324.9,270.7,1100910357,1100910355,1,0.0,001556,001555,128.9,32.706636,-117.236147,NaN,NaN,NaN,16.696, NaN,NaN,NaN, NaN, NaN
20041120,002625,1497951,32.706623,-117.236237,4.0,16.695,32.932,42.230,111.01,0.0,5.525, NaN, NaN, NaN,23.998,   NaN,17.13,1011.86,84.36,16.95,90.9,90.4,2.5,2.6,219.8,219.3,2.5,2.6,NaN, NaN,30.7,324.9,270.7,1100910386,1100910385,1,0.0,001586,001585,128.8,32.706633,-117.236143,NaN,NaN,NaN,16.699, NaN,NaN,NaN, NaN, NaN
20041120,002655,1497980,32.706625,-117.236237,4.0,16.698,32.941,42.244,105.58,0.0,5.202, NaN, NaN, NaN,24.005,   NaN,17.09,1011.88,84.31,16.93,86.2,85.5,1.8,2.0,215.0,214.3,1.8,2.0,NaN, NaN,31.1,324.9,270.7,1100910416,1100910415,1,0.1,001615,001615,128.8,32.706631,-117.236135,NaN,NaN,NaN,16.702, NaN,NaN,NaN, NaN, NaN
20041120,002726,1498012,32.706625,-117.236237,3.9,16.696,32.937,42.238,100.54,0.0,5.339, NaN, NaN, NaN,24.002,   NaN,17.09,1011.85,84.11,16.95,95.6,96.3,2.2,2.4,224.4,225.1,2.2,2.4,NaN, NaN,31.2,324.9,270.7,1100910447,1100910445,1,0.1,001646,001645,128.9,32.706623,-117.236133,NaN,NaN,NaN,16.700, NaN,NaN,NaN, NaN, NaN
20041120,002756,1498041,32.706625,-117.236237,3.9,16.697,32.927,42.228,96.40,0.0,5.304, NaN, NaN, NaN,23.995,   NaN,17.07,1011.85,84.06,16.90,105.3,106.7,2.8,2.9,234.2,235.6,2.8,2.9,NaN, NaN,31.4,324.9,270.7,1100910477,1100910475,1,0.0,001676,001675,129.0,32.706616,-117.236132,NaN,NaN,NaN,16.701, NaN,NaN,NaN, NaN, NaN
20041120,002825,1498070,32.706623,-117.236237,4.0,16.701,32.933,42.238,92.65,0.0,5.369, NaN, NaN, NaN,23.998,   NaN,17.08,1011.84,84.06,16.90,105.0,104.1,2.6,2.7,233.8,232.9,2.6,2.7,NaN, NaN,31.6,324.9,270.7,1100910506,1100910505,1,0.1,001706,001705,128.7,32.706611,-117.236140,NaN,NaN,NaN,16.705, NaN,NaN,NaN, NaN, NaN
20041120,002855,1498101,32.706621,-117.236242,3.9,16.704,32.914,42.219,90.56,0.0,5.487, NaN, NaN, NaN,23.983,   NaN,17.10,1011.85,84.06,16.90,97.0,95.6,2.1,2.4,225.9,224.4,2.1,2.4,NaN, NaN,30.9,324.9,270.7,1100910536,1100910535,1,0.0,001735,001735,128.8,32.706616,-117.236155,NaN,NaN,NaN,16.708, NaN,NaN,NaN, NaN, NaN
20041120,002926,1498131,32.706621,-117.236243,4.0,16.716,32.932,42.251,87.34,0.0,5.405, NaN, NaN, NaN,23.994,   NaN,17.05,1011.83,83.98,16.80,89.9,87.9,2.3,2.6,218.7,216.7,2.3,2.6,NaN, NaN,30.1,324.9,270.7,1100910567,1100910565,1,0.0,001766,001765,129.0,32.706618,-117.236163,NaN,NaN,NaN,16.720, NaN,NaN,NaN, NaN, NaN
20041120,002956,1498161,32.706623,-117.236243,4.0,16.715,32.936,42.254,85.56,0.0,5.305, NaN, NaN, NaN,23.997,   NaN,17.05,1011.82,83.95,16.90,93.1,93.1,2.5,2.7,221.9,222.0,2.5,2.7,NaN, NaN,29.8,324.9,270.7,1100910597,1100910595,1,0.1,001796,001795,128.6,32.706611,-117.236163,NaN,NaN,NaN,16.719, NaN,NaN,NaN, NaN, NaN
20041120,003025,1498190,32.706621,-117.236247,4.0,16.710,32.930,42.244,84.04,0.0,5.482, NaN, NaN, NaN,23.994,   NaN,17.08,1011.82,83.97,16.84,106.2,108.5,2.3,2.4,234.9,237.3,2.3,2.4,NaN, NaN,29.7,324.9,270.7,1100910626,1100910625,1,0.1,001826,001825,128.8,32.706611,-117.236160,NaN,NaN,NaN,16.714, NaN,NaN,NaN, NaN, NaN
20041120,003055,1498220,32.706623,-117.236245,4.0,16.712,32.925,42.240,82.21,0.0,5.464, NaN, NaN, NaN,23.990,   NaN,17.05,1011.83,83.96,16.77,104.5,105.9,2.3,2.4,233.3,234.7,2.3,2.4,NaN, NaN,29.9,324.9,270.7,1100910656,1100910655,1,0.0,001855,001855,128.8,32.706611,-117.236153,NaN,NaN,NaN,16.716, NaN,NaN,NaN, NaN, NaN
20041120,003126,1498251,32.706625,-117.236238,4.0,16.713,32.937,42.253,80.82,0.0,5.387, NaN, NaN, NaN,23.998,   NaN,17.06,1011.82,83.95,16.80,97.1,96.6,2.3,2.4,225.9,225.4,2.3,2.4,NaN, NaN,30.4,324.9,270.7,1100910687,1100910685,1,0.1,001886,001885,128.8,32.706616,-117.236143,NaN,NaN,NaN,16.717, NaN,NaN,NaN, NaN, NaN
20041120,003156,1498281,32.706623,-117.236235,3.9,16.712,32.933,42.249,78.41,0.0,5.412, NaN, NaN, NaN,23.996,   NaN,17.05,1011.82,83.94,16.77,96.3,97.6,2.4,2.6,225.1,226.4,2.4,2.6,NaN, NaN,31.4,324.9,270.7,1100910717,1100910715,1,0.1,001916,001915,128.6,32.706623,-117.236147,NaN,NaN,NaN,16.716, NaN,NaN,NaN, NaN, NaN
20041120,003225,1498310,32.706625,-117.236237,3.9,16.711,32.933,42.248,76.19,0.0,5.416, NaN, NaN, NaN,23.996,   NaN,17.05,1011.82,83.94,16.77,109.2,113.3,2.4,2.4,238.0,242.1,2.4,2.4,NaN, NaN,31.8,324.9,270.7,1100910746,1100910745,1,0.1,001946,001945,129.0,32.706635,-117.236157,NaN,NaN,NaN,16.715, NaN,NaN,NaN, NaN, NaN
20041120,003255,1498340,32.706625,-117.236235,3.9,16.708,32.915,42.224,74.01,0.0,5.308, NaN, NaN, NaN,23.982,   NaN,17.08,1011.82,83.95,16.74,113.5,117.6,2.0,2.0,242.3,246.4,2.0,2.0,NaN, NaN,31.4,324.9,270.7,1100910776,1100910775,1,0.1,001975,001975,128.7,32.706641,-117.236158,NaN,NaN,NaN,16.712, NaN,NaN,NaN, NaN, NaN
20041120,003326,1498372,32.706623,-117.236238,3.9,16.705,32.932,42.241,70.65,0.0,5.413, NaN, NaN, NaN,23.996,   NaN,17.05,1011.82,83.79,16.77,111.2,112.2,2.1,2.1,240.0,241.0,2.1,2.1,NaN, NaN,30.4,324.9,270.7,1100910807,1100910805,1,0.1,002006,002005,128.8,32.706633,-117.236155,NaN,NaN,NaN,16.709, NaN,NaN,NaN, NaN, NaN
20041120,003356,1498401,32.706623,-117.236242,3.9,16.693,32.931,42.228,68.05,0.0,5.375, NaN, NaN, NaN,23.999,   NaN,17.07,1011.83,83.81,16.71,100.1,98.9,1.9,1.9,228.9,227.7,1.9,1.9,NaN, NaN,29.5,324.9,270.7,1100910837,1100910835,1,0.1,002036,002035,128.8,32.706618,-117.236145,NaN,NaN,NaN,16.697, NaN,NaN,NaN, NaN, NaN
20041120,003425,1498431,32.706623,-117.236247,4.0,16.679,32.944,42.230,65.05,0.0,5.451, NaN, NaN, NaN,24.011,   NaN,17.05,1011.82,83.86,16.74,98.1,95.7,1.4,1.3,227.0,224.6,1.4,1.3,NaN, NaN,29.1,324.9,270.7,1100910867,1100910865,1,0.0,002066,002065,128.9,32.706611,-117.236155,NaN,NaN,NaN,16.683, NaN,NaN,NaN, NaN, NaN
20041120,003455,1498461,32.706621,-117.236245,4.0,16.677,32.938,42.221,62.18,0.0,5.356, NaN, NaN, NaN,24.008,   NaN,17.06,1011.83,83.88,16.68,101.8,100.7,1.2,1.3,230.7,229.5,1.2,1.3,NaN, NaN,28.4,324.9,270.7,1100910896,1100910895,1,0.1,002095,002095,128.9,32.706611,-117.236147,NaN,NaN,NaN,16.681, NaN,NaN,NaN, NaN, NaN
20041120,003526,1498491,32.706625,-117.236247,4.0,16.684,32.938,42.228,59.60,0.0,5.378, NaN, NaN, NaN,24.006,   NaN,17.05,1011.83,83.81,16.71,107.7,106.9,1.4,1.5,236.5,235.7,1.4,1.5,NaN, NaN,28.6,324.9,270.7,1100910927,1100910925,1,0.0,002126,002125,128.8,32.706608,-117.236148,NaN,NaN,NaN,16.688, NaN,NaN,NaN, NaN, NaN
20041120,003556,1498522,32.706625,-117.236242,4.0,16.690,32.938,42.233,56.77,0.0,5.375, NaN, NaN, NaN,24.004,   NaN,17.03,1011.77,83.67,16.68,115.9,118.1,1.9,1.9,244.8,246.9,1.9,1.9,NaN, NaN,29.8,324.9,270.7,1100910957,1100910955,1,0.1,002156,002155,128.9,32.706600,-117.236150,NaN,NaN,NaN,16.694, NaN,NaN,NaN, NaN, NaN
20041120,003625,1498550,32.706626,-117.236238,3.9,16.695,32.923,42.221,54.71,0.0,5.379, NaN, NaN, NaN,23.992,   NaN,17.08,1011.82,83.67,16.71,112.2,116.2,2.0,2.0,241.1,245.0,2.0,2.0,NaN, NaN,30.4,324.9,270.7,1100910987,1100910985,1,0.1,002186,002185,128.7,32.706605,-117.236160,NaN,NaN,NaN,16.699, NaN,NaN,NaN, NaN, NaN
20041120,003655,1498580,32.706625,-117.236240,4.0,16.672,32.943,42.222,52.03,0.0,5.163, NaN, NaN, NaN,24.013,   NaN,17.05,1011.83,83.69,16.68,100.4,103.7,1.8,1.9,229.2,232.6,1.8,1.9,NaN, NaN,31.0,324.9,270.7,1100911016,1100911015,1,0.1,002215,002215,128.8,32.706616,-117.236167,NaN,NaN,NaN,16.676, NaN,NaN,NaN, NaN, NaN